Powrót do katalogu

FENGYUN 1C DEB

AktywnySSO
NORAD 29796·DEBRIS·🇨🇳 China

Wystrzelony May 10, 1999 z Taiyuan Satellite Launch Center

Loading…

Następne Przeloty (najbliższe 24 godziny)

TLE

ŚwieżeSource: Space-Track

Epoka: Sep 14, 2026, 09:50 UTC

1 29796U 99025CN  26257.40979435  .00000729  00000-0  40993-3 0  9997
2 29796  98.8368 310.9781 0051903 205.7936 220.3405 14.12949338  9511

Śledź FENGYUN 1C DEB w czasie rzeczywistym z AllMySat

Download on the App Store